Kezdőlap
METAR-TAF:

METAR-TAF

Repülőterek :

Granite Falls Municipal Airport (Lenzen-Roe Memorial Field)

Granite Falls, Minnesota, Amerikai Egyesült Államok

földrajzi szélesség: 44-45-11N, földrajzi hosszúság: 095-33-21W, magasság: 319 m

Jelenlegi meteorológiai megfigyelések

A jelentés 24 perccel ezelõtt készült, 13:35 UTC
Keleti szél 3 kt
Hőmérséklet -13°C
Páratartalom 85%
Légköri nyomás 1027 hPa
Látótávolság: 16.1 km
Derült ég

METAR: KGDB 081335Z AUTO 10003KT 10SM CLR M13/M15 A3033 RMK AO2 T11351153

Idő: 07:59 (13:59 UTC)


TAF: hiányzik

Meteorológiai megfigyelések és előrejelzések több, mint 4000 repülőtéren (METAR és TAF jelentéseket).

A térképen piros és sárga pontok jelzik az elérhető meteorológiai állomásokat.

Mozgassa az egeret a pont fölött, hogy megjelenjen az állomás neve.

Azután kattintson az időjárási megfigyelések és előrejelzések megtekintéséhez.

A térkép megváltoztatása: kattintson a fekete keresztel jelölt zöld gombra ráközelítéshez, a vonallal jelölt zöld gombra távolításhoz, vagy a zöld nyilakra a szomszédos térképek eléréséhez.


METAR-TAF: